Hailey, ID

3:16 AM MDT on August 17, 2017 (GMT -0600)
Friedman Memorial

Weather History for KSUN - September, 2013

Change the Weather History Date:

Monday, September 16, 2013

  Actual Average Record
Temperature  
Mean Temperature 66 °F -  
Max Temperature 78 °F 69 °F 86 °F (1999)
Min Temperature 53 °F 41 °F 30 °F (1996)
Growing Degree Days 16 (Base 50)    
Moisture  
Dew Point 49 °F    
Average Humidity 69    
Maximum Humidity 88    
Minimum Humidity 24    
Precipitation  
Precipitation 0.00 in - - ()
Sea Level Pressure  
Sea Level Pressure 30.04 in    
Wind  
Wind Speed 6 mph (NW)    
Max Wind Speed 12 mph    
Max Gust Speed -    
Visibility 10 miles    
Events Rain , Thunderstorm    
Averages and records for this station are not official NWS values.
T = Trace of Precipitation, MM = Missing Value Source: NWS Daily Summary

Daily Weather History Graph

Daily Weather History Graph

Search for Another Location

Airport or City:

Trip Planner

Search our weather history database for the weather conditions in past years. The results will help you decide how hot, cold, wet, or windy it might be!

Date:

Astronomy

Sep. 16, 2013 Rise Set
Actual Time 7:18 AM MDT 7:44 PM MDT
Civil Twilight 6:49 AM MDT 8:13 PM MDT
Nautical Twilight 6:15 AM MDT 8:47 PM MDT
Astronomical Twilight 5:40 AM MDT 9:22 PM MDT
Moon 5:59 PM MDT (9/16) 4:04 AM MDT (9/16)
Length of Visible Light 13h 24m
Length of Day
12h 26m
Waxing Gibbous, 90% of the Moon is Illuminated
Sep 16
Waxing Gibbous
Sep 19
Full
Sep 26
Last Quarter
Oct 4
New
Oct 11
First Quarter

Hourly Weather History & Observations

Time (MDT) Temp. Dew Point Humidity Pressure Visibility Wind Dir Wind Speed Gust Speed Precip Events Conditions
12:15 AM 57.2 °F 51.8 °F 82% 30.07 in 10.0 mi NNW 4.6 mph - N/A   Clear
12:35 AM 57.2 °F 51.8 °F 82% 30.06 in 10.0 mi Calm Calm - N/A   Clear
12:55 AM 57.2 °F 51.8 °F 82% 30.06 in 10.0 mi NW 4.6 mph - N/A   Clear
1:15 AM 57.2 °F 51.8 °F 82% 30.07 in 10.0 mi NNW 6.9 mph - N/A   Clear
1:35 AM 57.2 °F 51.8 °F 82% 30.07 in 10.0 mi NW 6.9 mph - N/A   Clear
1:55 AM 57.2 °F 51.8 °F 82% 30.07 in 10.0 mi NW 5.8 mph - N/A   Clear
2:15 AM 57.2 °F 51.8 °F 82% 30.07 in 10.0 mi NW 4.6 mph - N/A   Clear
2:35 AM 55.4 °F 50.0 °F 82% 30.06 in 10.0 mi Calm Calm - N/A   Clear
2:55 AM 55.4 °F 50.0 °F 82% 30.06 in 10.0 mi NNW 6.9 mph - N/A   Clear
3:15 AM 55.4 °F 50.0 °F 82% 30.06 in 10.0 mi NW 3.5 mph - N/A   Clear
3:35 AM 55.4 °F 50.0 °F 82% 30.06 in 10.0 mi NW 5.8 mph - N/A   Clear
3:55 AM 55.4 °F 50.0 °F 82% 30.06 in 10.0 mi WNW 6.9 mph - N/A   Clear
4:15 AM 55.4 °F 50.0 °F 82% 30.06 in 10.0 mi NW 5.8 mph - N/A   Clear
4:35 AM 55.4 °F 50.0 °F 82% 30.06 in 10.0 mi NW 9.2 mph - N/A   Clear
4:55 AM 55.4 °F 50.0 °F 82% 30.06 in 10.0 mi WNW 6.9 mph - N/A   Scattered Clouds
5:15 AM 55.4 °F 50.0 °F 82% 30.05 in 10.0 mi WNW 10.4 mph - N/A Rain Light Rain
5:35 AM 53.6 °F 50.0 °F 88% 30.05 in 10.0 mi NNW 8.1 mph - N/A   Scattered Clouds
5:55 AM 53.6 °F 50.0 °F 88% 30.06 in 10.0 mi WNW 5.8 mph - N/A   Clear
6:15 AM 53.6 °F 50.0 °F 88% 30.06 in 10.0 mi NNW 9.2 mph - N/A   Clear
6:35 AM 53.6 °F 50.0 °F 88% 30.06 in 10.0 mi NW 8.1 mph - N/A   Clear
6:47 AM 55.4 °F 50.0 °F 82% 30.06 in 10.0 mi WNW 11.5 mph - N/A Thunderstorm Mostly Cloudy
6:55 AM 53.6 °F 50.0 °F 88% 30.06 in 10.0 mi NW 8.1 mph - N/A   Clear
7:20 AM 53.6 °F 48.2 °F 82% 30.06 in 10.0 mi NW 9.2 mph - N/A   Scattered Clouds
7:47 AM 53.6 °F 48.2 °F 82% 30.07 in 10.0 mi WNW 9.2 mph - N/A   Scattered Clouds
8:47 AM 55.4 °F 50.0 °F 82% 30.06 in 10.0 mi NNW 5.8 mph - N/A   Mostly Cloudy
9:47 AM 55.4 °F 51.8 °F 88% 30.08 in 10.0 mi West 9.2 mph - N/A   Scattered Clouds
10:47 AM 62.6 °F 55.4 °F 77% 30.08 in 10.0 mi WNW 6.9 mph - N/A   Partly Cloudy
11:47 AM 68.0 °F 53.6 °F 60% 30.07 in 10.0 mi South 5.8 mph - N/A   Partly Cloudy
12:50 PM 73.4 °F 53.6 °F 50% 30.06 in 10.0 mi ESE 11.5 mph - N/A   Partly Cloudy
1:47 PM 75.2 °F 50.0 °F 41% 30.05 in 10.0 mi East 9.2 mph - N/A   Partly Cloudy
2:47 PM 75.2 °F 48.2 °F 38% 30.03 in 10.0 mi SE 6.9 mph - N/A   Partly Cloudy
3:52 PM 78.8 °F 44.6 °F 30% 30.00 in 10.0 mi South 5.8 mph - N/A   Partly Cloudy
4:50 PM 78.8 °F 42.8 °F 28% 29.97 in 10.0 mi SSW 5.8 mph - N/A   Partly Cloudy
5:47 PM 78.8 °F 39.2 °F 24% 29.97 in 10.0 mi SSW 9.2 mph - N/A   Partly Cloudy
6:50 PM 77.0 °F 37.4 °F 24% 29.95 in 10.0 mi South 5.8 mph - N/A   Partly Cloudy
7:47 PM 68.0 °F 42.8 °F 40% 29.94 in 10.0 mi Calm Calm - N/A   Partly Cloudy
8:47 PM 66.2 °F 44.6 °F 46% 29.95 in 10.0 mi Calm Calm - N/A   Clear
9:47 PM 62.6 °F 44.6 °F 52% 29.96 in 10.0 mi NW 5.8 mph - N/A   Clear
10:47 PM 60.8 °F 42.8 °F 52% 29.97 in 10.0 mi NW 5.8 mph - N/A   Clear
11:15 PM 59.0 °F 42.8 °F 55% 29.97 in 10.0 mi NW 9.2 mph - N/A   Clear
11:35 PM 59.0 °F 42.8 °F 55% 29.96 in 10.0 mi NW 10.4 mph - N/A   Clear
11:55 PM 59.0 °F 41.0 °F 51% 29.95 in 10.0 mi NW 11.5 mph - N/A   Clear